FW5725 Weather Reports


time (UTC)temp
C
wind
direction
speed
KPH
gust
KPH
rain 1hr
cm
rain 24hr
cm
rain mn
cm
humidity
%
barometer
mb
20260507115921 19 205 3.2 11.3 0.00 0.00 0.00 67 1013.1
20260507114926 18 246 3.2 14.5 0.00 0.00 0.00 65 1013.1
20260507114426 18 248 4.8 14.5 0.00 0.00 0.00 66 1013.2
20260507113927 18 279 6.4 14.5 0.00 0.00 0.00 66 1013.2
20260507113421 18 281 4.8 14.5 0.00 0.00 0.00 67 1013.2
20260507112909 18 288 6.4 14.5 0.00 0.00 0.00 67 1013.3
20260507112403 18 269 8.0 14.5 0.00 0.00 0.00 66 1013.2
20260507111904 19 249 6.4 16.1 0.00 0.00 0.00 65 1013.2
20260507111403 19 296 3.2 16.1 0.00 0.00 0.00 64 1013.1
20260507111129 19 338 1.6 9.7 0.00 0.00 0.00 66 1013.0
20260507110403 19 341 3.2 9.7 0.00 0.00 0.00 66 1013.1
20260507105902 19 336 4.8 11.3 0.00 0.00 0.00 67 1013.1
20260507105405 18 279 4.8 11.3 0.00 0.00 0.00 67 1013.1
20260507104905 18 284 6.4 12.9 0.00 0.00 0.00 66 1013.1
20260507104405 18 248 4.8 12.9 0.00 0.00 0.00 67 1013.1
20260507104353 18 300 4.8 11.3 0.00 0.00 0.00 68 1013.1
20260507103354 18 288 4.8 11.3 0.00 0.00 0.00 69 1013.1
20260507102848 18 281 4.8 11.3 0.00 0.00 0.00 68 1013.0
20260507102343 18 227 4.8 12.9 0.00 0.00 0.00 68 1013.1
20260507101836 18 219 6.4 16.1 0.00 0.00 0.00 68 1013.1
20260507101336 19 242 3.2 16.1 0.00 0.00 0.00 67 1013.0
20260507101055 18 286 3.2 12.9 0.00 0.00 0.00 69 1013.0
20260507100334 18 275 6.4 12.9 0.00 0.00 0.00 69 1013.1
20260507095835 18 290 4.8 11.3 0.00 0.00 0.00 70 1013.0
20260507095332 18 298 4.8 14.5 0.00 0.00 0.00 70 1012.9
20260507094832 18 266 6.4 16.1 0.00 0.00 0.00 71 1012.9
20260507094332 18 288 6.4 16.1 0.00 0.00 0.00 70 1012.8
20260507093832 17 286 4.8 12.9 0.00 0.00 0.00 73 1012.8
20260507093330 17 287 4.8 12.9 0.00 0.00 0.00 73 1012.9
20260507092831 17 286 6.4 12.9 0.00 0.00 0.00 73 1012.8
20260507092600 17 278 4.8 12.9 0.00 0.00 0.00 74 1012.8
20260507092055 17 338 3.2 9.7 0.00 0.00 0.00 76 1012.7
20260507091329 17 279 1.6 9.7 0.00 0.00 0.00 77 1012.7
20260507090830 17 340 1.6 9.7 0.00 0.00 0.00 78 1012.7
20260507090334 16 337 1.6 8.0 0.00 0.00 0.00 78 1012.7
20260507085833 16 337 1.6 12.9 0.00 0.00 0.00 80 1012.7
20260507085331 16 346 3.2 12.9 0.00 0.00 0.00 80 1012.6
20260507084826 16 333 4.8 11.3 0.00 0.00 0.00 81 1012.6
20260507084320 16 332 3.2 9.7 0.00 0.00 0.00 81 1012.6
20260507083817 16 348 3.2 9.7 0.00 0.00 0.00 82 1012.5
20260507083318 16 301 4.8 8.0 0.00 0.00 0.00 82 1012.5
20260507082818 16 301 3.2 8.0 0.00 0.00 0.00 82 1012.5
20260507082316 16 301 1.6 8.0 0.00 0.00 0.00 82 1012.3
20260507081814 16 296 3.2 11.3 0.00 0.00 0.00 82 1012.3
20260507081314 16 298 6.4 12.9 0.00 0.00 0.00 83 1012.2
20260507080812 16 313 6.4 12.9 0.00 0.00 0.00 83 1012.2
20260507080312 16 299 6.4 12.9 0.00 0.00 0.00 83 1012.1
20260507075810 16 292 6.4 12.9 0.00 0.00 0.00 83 1012.1
20260507075310 15 289 6.4 12.9 0.00 0.00 0.00 83 1012.1
20260507074810 15 287 3.2 11.3 0.00 0.00 0.00 84 1012.0
20260507074536 15 282 3.2 9.7 0.00 0.00 0.00 84 1011.9
20260507073806 15 279 4.8 9.7 0.00 0.00 0.00 84 1011.8
20260507073306 15 279 4.8 11.3 0.00 0.00 0.00 84 1011.9
20260507072806 15 277 6.4 14.5 0.00 0.00 0.00 84 1011.7
20260507072306 15 278 6.4 16.1 0.00 0.00 0.00 84 1011.8
20260507071802 15 304 8.0 16.1 0.00 0.00 0.00 84 1011.7
20260507071302 15 273 6.4 14.5 0.00 0.00 0.00 84 1011.6
20260507070802 15 284 4.8 9.7 0.00 0.00 0.00 84 1011.5
20260507070539 15 277 4.8 12.9 0.00 0.00 0.00 84 1011.4
20260507065802 15 278 6.4 14.5 0.00 0.00 0.00 85 1011.4
20260507065305 15 302 6.4 14.5 0.00 0.00 0.00 85 1011.4
20260507064801 15 227 6.4 14.5 0.00 0.00 0.00 84 1011.3
20260507064302 15 282 4.8 12.9 0.00 0.00 0.00 84 1011.3
20260507063801 15 244 4.8 9.7 0.00 0.00 0.00 85 1011.3
20260507063302 14 257 4.8 9.7 0.00 0.00 0.00 84 1011.2
20260507062801 14 260 3.2 8.0 0.00 0.00 0.00 84 1011.2
20260507062306 14 263 1.6 8.0 0.00 0.00 0.00 84 1011.2
20260507062034 14 278 1.6 6.4 0.00 0.00 0.00 84 1011.1
20260507061302 14 278 0.0 6.4 0.00 0.00 0.00 84 1010.9
20260507060801 14 278 0.0 6.4 0.00 0.00 0.00 84 1010.9
20260507060301 14 278 0.0 4.8 0.00 0.00 0.00 84 1010.6
20260507055802 14 278 0.0 0.0 0.00 0.00 0.00 84 1010.6
20260507055305 13 304 0.0 0.0 0.00 0.00 0.00 84 1010.5
20260507054802 13 304 0.0 0.0 0.00 0.00 0.00 84 1010.5
20260507054300 13 304 0.0 0.0 0.00 0.00 0.00 84 1010.5
20260507053801 13 304 0.0 4.8 0.00 0.00 0.00 84 1010.5
20260507053302 13 304 0.0 4.8 0.00 0.00 0.00 84 1010.5
20260507052801 13 304 0.0 4.8 0.00 0.00 0.00 84 1010.5
20260507052536 13 304 0.0 0.0 0.00 0.00 0.00 84 1010.4
20260507052250 13 304 0.0 0.0 0.00 0.00 0.00 83 1010.2
20260507051529 13 304 0.0 0.0 0.00 0.00 0.00 83 1010.1
20260507050801 13 304 0.0 0.0 0.00 0.00 0.00 83 1010.0
20260507050302 13 304 0.0 0.0 0.00 0.00 0.00 83 1009.9
20260507045801 13 304 0.0 0.0 0.00 0.00 0.00 84 1009.9
20260507045301 13 304 0.0 0.0 0.00 0.00 0.00 83 1010.1
20260507044802 13 304 0.0 0.0 0.00 0.00 0.00 83 1010.1
20260507044301 13 304 0.0 0.0 0.00 0.00 0.00 83 1010.0
20260507043805 13 304 0.0 0.0 0.00 0.00 0.00 83 1010.0
20260507043533 13 304 0.0 0.0 0.00 0.00 0.00 83 1010.0
20260507042801 13 304 0.0 0.0 0.00 0.00 0.00 83 1010.0
20260507042515 13 304 0.0 0.0 0.00 0.00 0.00 83 1010.0
20260507041736 13 304 0.0 0.0 0.00 0.00 0.00 83 1010.0
20260507041234 13 304 0.0 0.0 0.00 0.00 0.00 83 1010.0
20260507040734 13 304 0.0 0.0 0.00 0.00 0.00 83 1009.9
20260507040233 13 304 0.0 0.0 0.00 0.00 0.00 83 1009.9
20260507035730 13 304 0.0 0.0 0.00 0.00 0.00 83 1009.8
20260507035230 13 304 0.0 0.0 0.00 0.00 0.00 83 1009.7
20260507034730 13 304 0.0 0.0 0.00 0.00 0.00 83 1009.7
20260507034230 13 304 0.0 0.0 0.00 0.00 0.00 83 1009.7
20260507033734 13 304 0.0 0.0 0.00 0.00 0.00 84 1009.5
20260507033730 13 304 0.0 0.0 0.00 0.00 0.00 84 1009.7
20260507032730 13 304 0.0 0.0 0.00 0.00 0.00 84 1009.5
20260507032229 13 304 0.0 0.0 0.00 0.00 0.00 84 1009.5
20260507031729 13 304 0.0 0.0 0.00 0.00 0.00 84 1009.6
20260507031229 13 304 0.0 0.0 0.00 0.00 0.00 84 1009.5
20260507030730 13 304 0.0 0.0 0.00 0.00 0.00 84 1009.5
20260507030229 13 304 0.0 4.8 0.00 0.00 0.00 84 1009.5
20260507030004 13 304 3.2 9.7 0.00 0.00 0.00 84 1009.4
20260507025239 13 304 6.4 11.3 0.00 0.00 0.00 84 1009.4
20260507024733 13 305 4.8 11.3 0.00 0.00 0.00 84 1009.4
20260507024230 13 40 1.6 6.4 0.00 0.00 0.00 84 1009.4
20260507023730 13 43 0.0 0.0 0.00 0.00 0.00 84 1009.1
20260507023230 13 43 0.0 0.0 0.00 0.00 0.00 84 1009.1
20260507022729 13 43 0.0 0.0 0.00 0.00 0.00 84 1009.1
20260507022230 13 43 0.0 0.0 0.00 0.00 0.00 84 1009.2
20260507021729 13 43 0.0 0.0 0.00 0.00 0.00 84 1009.1
20260507021230 13 43 0.0 0.0 0.00 0.00 0.00 84 1009.1
20260507020729 13 43 0.0 0.0 0.00 0.00 0.00 84 1009.0
20260507020221 13 43 0.0 0.0 0.00 0.00 0.00 84 1009.2
20260507015719 13 43 0.0 0.0 0.00 0.00 0.00 84 1009.1
20260507015449 13 43 0.0 0.0 0.00 0.00 0.00 84 1009.1
20260507014724 13 43 0.0 0.0 0.00 0.00 0.00 84 1009.0
20260507014221 13 43 0.0 0.0 0.00 0.00 0.00 84 1008.9
20260507013716 13 43 0.0 0.0 0.00 0.00 0.00 84 1008.9
20260507013214 13 43 0.0 3.2 0.00 0.00 0.00 84 1008.9
20260507013200 13 43 1.6 6.4 0.00 0.00 0.00 84 1008.9
20260507012210 13 43 1.6 6.4 0.00 0.00 0.00 84 1008.9
20260507011707 13 39 0.0 4.8 0.00 0.00 0.00 84 1008.8
20260507011208 13 39 1.6 8.0 0.00 0.00 0.00 84 1008.9
20260507010706 13 39 1.6 9.7 0.00 0.00 0.00 84 1008.9
20260507010426 13 34 3.2 9.7 0.00 0.00 0.00 84 1008.9
20260507005701 13 37 1.6 6.4 0.00 0.00 0.00 84 1008.8
20260507005422 13 37 0.0 6.4 0.00 0.00 0.00 84 1008.9
20260507004924 13 37 0.0 0.0 0.00 0.00 0.00 84 1008.9
20260507004200 13 37 0.0 0.0 0.00 0.00 0.00 84 1008.8
20260507003648 13 37 0.0 0.0 0.00 0.00 0.00 84 1008.9
20260507003148 13 37 0.0 0.0 0.00 0.00 0.00 84 1008.8
20260507002642 13 37 0.0 4.8 0.00 0.00 0.00 83 1008.9
20260507002129 13 37 1.6 6.4 0.00 0.00 0.00 84 1008.9
20260507001628 14 37 1.6 6.4 0.00 0.00 0.00 84 1008.9
20260507001121 14 34 1.6 6.4 0.00 0.00 0.00 84 1009.0
20260507000626 14 355 0.0 6.4 0.00 0.00 0.00 84 1008.9
20260507000120 14 355 1.6 8.0 0.00 0.00 0.00 84 1009.0
20260506235845 14 355 1.6 8.0 0.00 0.00 0.00 84 1009.0
20260506235120 14 355 1.6 6.4 0.00 0.00 0.00 84 1009.1
20260506234618 14 355 1.6 6.4 0.00 0.00 0.00 84 1009.3
20260506234116 14 355 1.6 8.0 0.00 0.00 0.00 84 1009.2
20260506233614 14 9 3.2 8.0 0.00 0.00 0.00 84 1009.2
20260506233114 14 0 1.6 8.0 0.00 0.00 0.00 84 1009.3
20260506232611 14 346 1.6 6.4 0.00 0.00 0.00 83 1009.4
20260506232109 14 346 3.2 8.0 0.00 0.00 0.00 83 1009.3
20260506231607 14 346 3.2 8.0 0.00 0.00 0.00 83 1009.4
20260506231106 14 0 1.6 6.4 0.00 0.00 0.00 84 1009.4
20260506230834 14 14 1.6 8.0 0.00 0.00 0.00 83 1009.3
20260506225601 14 342 1.6 9.7 0.00 0.00 0.00 83 1009.2
20260506225325 14 335 1.6 9.7 0.00 0.00 0.00 83 1009.4
20260506224602 14 336 1.6 9.7 0.00 0.00 0.00 83 1009.2
20260506224101 15 296 0.0 6.4 0.00 0.00 0.00 83 1009.3
20260506223601 15 296 3.2 11.3 0.00 0.00 0.00 83 1009.2
20260506223322 15 296 3.2 11.3 0.00 0.00 0.00 82 1009.2
20260506222550 15 306 1.6 8.0 0.00 0.00 0.00 82 1009.1
20260506222037 15 302 1.6 6.4 0.00 0.00 0.00 81 1009.0
20260506221530 15 302 0.0 4.8 0.00 0.00 0.00 80 1008.9
20260506221030 15 301 0.0 4.8 0.00 0.00 0.00 80 1008.8
20260506220524 15 301 0.0 4.8 0.00 0.00 0.00 79 1008.8
20260506220017 15 299 0.0 3.2 0.00 0.00 0.00 79 1008.9
20260506215508 15 299 3.2 12.9 0.00 0.00 0.00 79 1009.0
20260506215002 16 299 6.4 12.9 0.00 0.00 0.00 78 1009.0
20260506214459 16 298 6.4 14.5 0.00 0.00 0.00 78 1008.9
20260506213959 16 290 6.4 16.1 0.00 0.00 0.00 77 1008.9
20260506213721 16 292 6.4 16.1 0.00 0.00 0.00 76 1008.8
20260506212959 16 304 6.4 17.7 0.00 0.00 0.00 74 1008.7
20260506212457 16 321 9.7 24.1 0.00 0.00 0.00 74 1008.6
20260506211957 16 301 11.3 24.1 0.00 0.00 0.00 73 1008.6
20260506211458 16 318 8.0 24.1 0.00 0.00 0.00 73 1008.5
20260506211000 16 305 4.8 12.9 0.00 0.00 0.00 74 1008.5
20260506210458 15 232 0.0 8.0 0.00 0.00 0.00 76 1008.4
20260506205953 15 222 0.0 0.0 0.00 0.00 0.00 76 1008.1
20260506205451 15 222 0.0 0.0 0.00 0.00 0.00 76 1008.1
20260506204949 15 222 0.0 0.0 0.00 0.00 0.00 75 1008.0
20260506204713 15 222 0.0 0.0 0.00 0.00 0.00 75 1008.1
20260506203945 16 222 0.0 0.0 0.00 0.00 0.00 75 1008.1
20260506203444 16 222 0.0 0.0 0.00 0.00 0.00 74 1008.1
20260506203203 16 222 0.0 0.0 0.00 0.00 0.00 74 1008.1
20260506202439 16 222 0.0 0.0 0.00 0.00 0.00 74 1008.1
20260506202200 16 222 0.0 0.0 0.00 0.00 0.00 74 1008.1
20260506201435 16 222 0.0 0.0 0.00 0.00 0.00 74 1008.1
20260506200934 15 222 0.0 0.0 0.00 0.00 0.00 74 1008.2
20260506200430 15 222 0.0 0.0 0.00 0.00 0.00 74 1008.2
20260506195929 15 222 0.0 0.0 0.00 0.00 0.00 74 1008.1
20260506195423 15 222 0.0 0.0 0.00 0.00 0.00 74 1008.1
20260506194922 16 222 0.0 0.0 0.00 0.00 0.00 73 1008.1
20260506194416 16 222 0.0 0.0 0.00 0.00 0.00 72 1008.1
20260506193910 16 222 0.0 0.0 0.00 0.00 0.00 72 1008.1
20260506193856 16 222 0.0 0.0 0.00 0.00 0.00 72 1008.1
20260506192858 16 222 0.0 0.0 0.00 0.00 0.00 72 1008.1
20260506192357 16 222 0.0 0.0 0.00 0.00 0.00 71 1008.0
20260506191856 16 222 0.0 0.0 0.00 0.00 0.00 70 1007.9
20260506191625 16 222 0.0 0.0 0.00 0.00 0.00 69 1008.0
20260506190851 16 222 0.0 0.0 0.00 0.00 0.00 68 1007.9
20260506190353 16 222 0.0 0.0 0.00 0.00 0.00 67 1008.0
20260506185851 17 222 0.0 0.0 0.00 0.00 0.00 66 1008.0
20260506185349 17 222 0.0 0.0 0.00 0.00 0.00 65 1007.9
20260506184848 17 222 0.0 0.0 0.00 0.00 0.00 63 1007.8
20260506184347 18 222 0.0 0.0 0.00 0.00 0.00 62 1007.8
20260506183847 18 222 0.0 0.0 0.00 0.00 0.00 62 1007.8
20260506183609 18 222 0.0 0.0 0.00 0.00 0.00 61 1007.8
20260506183107 18 222 0.0 0.0 0.00 0.00 0.00 60 1007.7
20260506182608 19 222 0.0 0.0 0.00 0.00 0.00 57 1007.7
20260506181839 20 222 0.0 0.0 0.00 0.00 0.00 56 1007.7
20260506181339 20 222 0.0 0.0 0.00 0.00 0.00 55 1007.7
20260506180839 20 222 0.0 0.0 0.00 0.00 0.00 54 1007.7
20260506180337 21 222 0.0 0.0 0.00 0.00 0.00 53 1007.6
20260506175833 21 222 0.0 0.0 0.00 0.00 0.00 52 1007.5
20260506175333 21 222 0.0 3.2 0.00 0.00 0.00 52 1007.5
20260506174832 21 222 0.0 4.8 0.00 0.00 0.00 51 1007.5
20260506174601 22 222 0.0 4.8 0.00 0.00 0.00 50 1007.5
20260506173828 22 222 0.0 3.2 0.00 0.00 0.00 50 1007.5
20260506173322 22 222 0.0 4.8 0.00 0.00 0.00 50 1007.6
20260506172816 22 222 1.6 6.4 0.00 0.00 0.00 49 1007.6
20260506172309 22 222 3.2 9.7 0.00 0.00 0.00 49 1007.5
20260506171809 22 223 4.8 9.7 0.00 0.00 0.00 48 1007.5
20260506171540 23 235 3.2 8.0 0.00 0.00 0.00 48 1007.4
20260506170809 23 235 3.2 8.0 0.00 0.00 0.00 47 1007.5
20260506170309 23 233 1.6 6.4 0.00 0.00 0.00 48 1007.5
20260506165808 22 233 1.6 6.4 0.00 0.00 0.00 49 1007.4
20260506165307 22 232 0.0 3.2 0.00 0.00 0.00 49 1007.5
20260506164807 22 232 0.0 4.8 0.00 0.00 0.00 49 1007.6
20260506164305 22 232 1.6 6.4 0.00 0.00 0.00 49 1007.6
20260506163804 22 232 1.6 6.4 0.00 0.00 0.00 49 1007.6
20260506163532 22 232 3.2 11.3 0.00 0.00 0.00 49 1007.6
20260506162804 22 232 4.8 11.3 0.00 0.00 0.00 49 1007.7
20260506162306 22 244 4.8 11.3 0.00 0.00 0.00 48 1007.8
20260506161802 22 254 4.8 9.7 0.00 0.00 0.00 48 1007.8
20260506161303 22 255 4.8 12.9 0.00 0.00 0.00 48 1007.8
20260506160801 22 240 3.2 12.9 0.00 0.00 0.00 47 1007.9
20260506160300 22 236 3.2 9.7 0.00 0.00 0.00 48 1007.9
20260506155802 22 251 4.8 12.9 0.00 0.00 0.00 47 1007.9
20260506155258 22 219 6.4 14.5 0.00 0.00 0.00 47 1008.0
20260506155024 22 211 6.4 12.9 0.00 0.00 0.00 46 1008.0
20260506154250 22 230 8.0 19.3 0.00 0.00 0.00 46 1008.1
20260506153743 23 234 8.0 19.3 0.00 0.00 0.00 46 1008.1
20260506153237 23 219 6.4 16.1 0.00 0.00 0.00 46 1008.1
20260506152737 23 230 6.4 16.1 0.00 0.00 0.00 46 1008.1
20260506152237 23 252 6.4 14.5 0.00 0.00 0.00 46 1008.2
20260506151737 23 205 6.4 14.5 0.00 0.00 0.00 45 1008.2
20260506151235 23 217 6.4 16.1 0.00 0.00 0.00 46 1008.3
20260506151004 23 252 8.0 16.1 0.00 0.00 0.00 45 1008.2
20260506150501 23 281 8.0 14.5 0.00 0.00 0.00 44 1008.2
20260506145729 23 321 8.0 16.1 0.00 0.00 0.00 44 1008.2
20260506145230 23 252 8.0 16.1 0.00 0.00 0.00 43 1008.2
20260506144729 23 273 6.4 16.1 0.00 0.00 0.00 43 1008.3
20260506144230 23 283 8.0 20.9 0.00 0.00 0.00 44 1008.4
20260506143729 23 198 9.7 20.9 0.00 0.00 0.00 43 1008.3
20260506143229 23 169 9.7 22.5 0.00 0.00 0.00 43 1008.3
20260506142729 24 217 11.3 24.1 0.00 0.00 0.00 42 1008.3
20260506142228 24 196 11.3 24.1 0.00 0.00 0.00 42 1008.3
20260506141729 24 259 9.7 22.5 0.00 0.00 0.00 43 1008.3
20260506141229 23 225 8.0 24.1 0.00 0.00 0.00 43 1008.4
20260506140729 23 276 9.7 24.1 0.00 0.00 0.00 44 1008.4
20260506140455 23 281 9.7 24.1 0.00 0.00 0.00 43 1008.4
20260506135728 23 233 9.7 24.1 0.00 0.00 0.00 44 1008.4
20260506135228 23 224 8.0 22.5 0.00 0.00 0.00 45 1008.5
20260506134728 23 237 8.0 19.3 0.00 0.00 0.00 44 1008.5
20260506134229 23 229 8.0 19.3 0.00 0.00 0.00 44 1008.5
20260506133729 23 288 8.0 19.3 0.00 0.00 0.00 44 1008.5
20260506133229 24 302 8.0 19.3 0.00 0.00 0.00 43 1008.5
20260506132731 23 256 8.0 22.5 0.00 0.00 0.00 45 1008.6
20260506132726 23 162 9.7 22.5 0.00 0.00 0.00 45 1008.4
20260506131729 23 227 11.3 24.1 0.00 0.00 0.00 45 1008.6
20260506131229 23 233 12.9 35.4 0.00 0.00 0.00 46 1008.6
20260506130729 23 191 12.9 35.4 0.00 0.00 0.00 46 1008.6
20260506130457 23 218 9.7 22.5 0.00 0.00 0.00 47 1008.5
20260506125729 23 248 11.3 22.5 0.00 0.00 0.00 47 1008.6
20260506125457 23 245 11.3 22.5 0.00 0.00 0.00 46 1008.6
20260506124729 23 213 11.3 22.5 0.00 0.00 0.00 47 1008.6
20260506124222 23 223 11.3 22.5 0.00 0.00 0.00 45 1008.6
20260506123716 24 259 11.3 25.7 0.00 0.00 0.00 46 1008.7
20260506123202 24 269 9.7 25.7 0.00 0.00 0.00 46 1008.8
20260506122701 23 234 8.0 22.5 0.00 0.00 0.00 47 1008.6
20260506122200 23 90 8.0 17.7 0.00 0.00 0.00 48 1008.6
20260506121701 23 244 9.7 24.1 0.00 0.00 0.00 48 1008.7
20260506121436 23 234 11.3 24.1 0.00 0.00 0.00 47 1008.7
20260506120701 23 273 8.0 22.5 0.00 0.00 0.00 48 1008.7
20260506120200 23 197 9.7 20.9 0.00 0.00 0.00 51 1008.6